Starlink 31162

operational
NORAD ID: 58791 Int'l Des: 2024-012 Owner: SPXS Country: US Constellation: starlink
LEOCIRCULAR

Über Starlink 31162

Beschreibung wird geladen...

Live-Position

3D-Globus wird geladen...

Nächste Überflüge

Höhenverlauf

Altitude vs Time

uPlot chart will show altitude changes over time

Zweizeiliger Elementsatz

1 58791U 24012E 25352.45208226 -.00001006 00000-0 -27027-4 0 9996
2 58791 43.0022 263.8780 0000985 276.0182 84.0557 15.27580770108814
Epoch: 18. Dez. 2025 • Age: 14 hours

Aktueller Status

Höhe 485.0 km
Geschwindigkeit 7.63 km/s
Subsatellitenpunkt 35.12°N, 157.14°W
Startdatum 15. Jan. 2024
Alter 1.9 years
Typ internet

Technische Details

Klassifizierung Payload
Masse 730.00 kg
Trockenmasse 700.00 kg
Gesamtmasse 730.00 kg
Länge 0.30 m
Durchmesser 4.10 m
Spannweite 29.00 m
Form Box + pan
Hersteller SPXS
Bus-Typ Starlink V2M
Phasenstatus In Orbit
Besitzer/Staat SPXS/US

Große Konstellationen

Loading constellations...